Tracking 35275 objects as of 9-Sep-2026
HD Live streaming from Space Station
objects crossing your sky now

SHIYAN 22B (SY-22B)


SHIYAN 22B (SY-22B) is no longer on orbit


NORAD ID: 55243
Int'l Code: 2023-006B
Launch date: January 13, 2023
Source: People's Republic of China (PRC)
Launch site: Jiuquan Satellite Launch Center, China (JSC)
Decay date: 2025-10-12
Your satellite tracking list
Your tracking list is empty




NASA's NSSDC Master Catalog

Two Line Element Set (TLE):
1 55243U 23006B   25285.28080677  .05907819  91338-5  10375-2 0  9996
2 55243  43.1742 229.7172 0009765 181.2581 178.8289 16.31623894154427
Source of the keplerian elements: AFSPC